Time,TemperatureF,DewpointF,PressureIn,WindDirection,WindDirectionDegrees,WindSpeedMPH,WindSpeedGustMPH,Humidity,HourlyPrecipIn,Conditions,Clouds,dailyrainin,SolarRadiationWatts/m^2,SoftwareType,DateUTC
2013-08-19 00:01:00,93.0,61.0,-100.00,ESE,118,4.0,12.0,35,0.00,,,0.00,0.000000,,2013-08-19 07:01:00,
2013-08-19 00:42:00,91.0,59.0,-100.00,ESE,119,7.0,10.0,35,0.00,,,0.00,0.000000,,2013-08-19 07:42:00,
2013-08-19 00:52:00,91.0,59.0,-100.00,ESE,119,7.0,10.0,35,0.00,,,0.00,0.000000,,2013-08-19 07:52:00,
2013-08-19 01:01:00,91.0,59.0,-100.00,ESE,119,7.0,10.0,35,0.00,,,0.00,0.000000,,2013-08-19 08:01:00,
2013-08-19 01:42:00,91.0,59.0,-100.00,East,97,2.0,12.0,34,0.00,,,0.00,0.000000,,2013-08-19 08:42:00,
2013-08-19 01:52:00,91.0,59.0,-100.00,East,97,2.0,12.0,34,0.00,,,0.00,0.000000,,2013-08-19 08:52:00,
2013-08-19 02:01:00,91.0,59.0,-100.00,East,97,2.0,12.0,34,0.00,,,0.00,0.000000,,2013-08-19 09:01:00,
2013-08-19 02:43:00,89.0,60.0,-100.00,NE,56,7.0,9.0,38,0.00,,,0.00,0.000000,,2013-08-19 09:43:00,
2013-08-19 02:53:00,89.0,60.0,-100.00,NE,56,7.0,9.0,38,0.00,,,0.00,0.000000,,2013-08-19 09:53:00,
2013-08-19 03:03:00,89.0,60.0,-100.00,NE,56,7.0,9.0,38,0.00,,,0.00,0.000000,,2013-08-19 10:03:00,
2013-08-19 03:43:00,88.0,58.0,-100.00,East,100,6.0,9.0,36,0.00,,,0.00,0.000000,,2013-08-19 10:43:00,
2013-08-19 04:45:00,90.0,60.0,-100.00,East,99,4.0,11.0,37,0.00,,,0.00,0.000000,,2013-08-19 11:45:00,
2013-08-19 04:52:00,90.0,60.0,-100.00,East,99,4.0,11.0,37,0.00,,,0.00,0.000000,,2013-08-19 11:52:00,
2013-08-19 05:01:00,90.0,60.0,-100.00,East,99,4.0,11.0,37,0.00,,,0.00,0.000000,,2013-08-19 12:01:00,
2013-08-19 05:42:00,89.0,59.0,-100.00,NE,51,5.0,9.0,37,0.00,,,0.00,0.000000,,2013-08-19 12:42:00,
2013-08-19 05:52:00,89.0,59.0,-100.00,NE,51,5.0,9.0,37,0.00,,,0.00,0.000000,,2013-08-19 12:52:00,
2013-08-19 06:03:00,89.0,59.0,-100.00,NE,51,5.0,9.0,37,0.00,,,0.00,0.000000,,2013-08-19 13:03:00,
2013-08-19 06:42:00,89.0,57.0,-100.00,ESE,118,2.0,9.0,34,0.00,,,0.00,0.000000,,2013-08-19 13:42:00,
2013-08-19 06:52:00,89.0,57.0,-100.00,ESE,118,2.0,9.0,34,0.00,,,0.00,0.000000,,2013-08-19 13:52:00,
2013-08-19 07:02:00,89.0,57.0,-100.00,ESE,118,2.0,9.0,34,0.00,,,0.00,0.000000,,2013-08-19 14:02:00,
2013-08-19 07:42:00,91.0,57.0,-100.00,WNW,291,0.0,8.0,32,0.00,,,0.00,0.000000,,2013-08-19 14:42:00,
2013-08-19 07:52:00,91.0,57.0,-100.00,WNW,291,0.0,8.0,32,0.00,,,0.00,0.000000,,2013-08-19 14:52:00,
2013-08-19 08:01:00,91.0,57.0,-100.00,WNW,291,0.0,8.0,32,0.00,,,0.00,0.000000,,2013-08-19 15:01:00,
2013-08-19 09:47:00,97.0,54.0,-100.00,ENE,64,5.0,11.0,24,0.00,,,0.00,307.000000,,2013-08-19 16:47:00,
2013-08-19 10:57:00,100.0,53.0,-100.00,ESE,114,7.0,12.0,21,0.00,,,0.00,577.000000,,2013-08-19 17:57:00,
2013-08-19 11:05:00,100.0,53.0,-100.00,ESE,114,7.0,12.0,21,0.00,,,0.00,577.000000,,2013-08-19 18:05:00,
2013-08-19 11:51:00,-999.0,-99.9,-100.00,South,174,4.0,13.0,17,0.00,,,0.00,795.000000,,2013-08-19 18:51:00,
2013-08-19 12:00:00,-999.0,-99.9,-100.00,South,174,4.0,13.0,17,0.00,,,0.00,795.000000,,2013-08-19 19:00:00,
2013-08-19 14:00:00,-999.0,-99.9,-100.00,SSE,163,5.0,14.0,-999,-99.99,,,-99.99,836.000000,,2013-08-19 21:00:00,
2013-08-19 18:42:00,108.0,50.0,-100.00,WSW,251,5.0,10.0,15,0.00,,,0.00,582.000000,,2013-08-20 01:42:00,
2013-08-19 18:52:00,108.0,50.0,-100.00,WSW,251,5.0,10.0,15,0.00,,,0.00,582.000000,,2013-08-20 01:52:00,
2013-08-19 19:02:00,108.0,50.0,-100.00,WSW,251,5.0,10.0,15,0.00,,,0.00,582.000000,,2013-08-20 02:02:00,
2013-08-19 19:42:00,106.0,52.0,-100.00,West,264,6.0,10.0,17,0.00,,,0.00,329.000000,,2013-08-20 02:42:00,
2013-08-19 19:52:00,106.0,52.0,-100.00,West,264,6.0,10.0,17,0.00,,,0.00,329.000000,,2013-08-20 02:52:00,
2013-08-19 20:02:00,106.0,52.0,-100.00,West,264,6.0,10.0,17,0.00,,,0.00,329.000000,,2013-08-20 03:02:00,
2013-08-19 20:43:00,104.0,52.0,-100.00,West,261,2.0,9.0,18,0.00,,,0.00,55.000000,,2013-08-20 03:43:00,
2013-08-19 20:54:00,104.0,52.0,-100.00,West,261,2.0,9.0,18,0.00,,,0.00,55.000000,,2013-08-20 03:54:00,
2013-08-19 21:03:00,104.0,52.0,-100.00,West,261,2.0,9.0,18,0.00,,,0.00,55.000000,,2013-08-20 04:03:00,
2013-08-19 22:43:00,98.0,50.0,-100.00,NW,321,1.0,4.0,20,0.00,,,0.00,0.000000,,2013-08-20 05:43:00,
2013-08-19 22:52:00,98.0,50.0,-100.00,NW,321,1.0,4.0,20,0.00,,,0.00,0.000000,,2013-08-20 05:52:00,
2013-08-19 23:01:00,98.0,50.0,-100.00,NW,321,1.0,4.0,20,0.00,,,0.00,0.000000,,2013-08-20 06:01:00,
2013-08-19 23:42:00,96.0,51.0,-100.00,West,264,2.0,3.0,22,0.00,,,0.00,0.000000,,2013-08-20 06:42:00,
2013-08-19 23:52:00,96.0,51.0,-100.00,West,264,2.0,3.0,22,0.00,,,0.00,0.000000,,2013-08-20 06:52:00,